Weather History for Agassiz, BC

Change the Weather History Date:

Wednesday, March 6, 2013

  Actual Average Record
Temperature  
Mean Temperature 44 °F -  
Max Temperature 49 °F - - ()
Min Temperature 40 °F - - ()
Degree Days  
Heating Degree Days 20    
Moisture  
Dew Point 35 °F    
Average Humidity 69    
Maximum Humidity 95    
Minimum Humidity 45    
Precipitation  
Precipitation 0.08 in - - ()
Sea Level Pressure  
Sea Level Pressure 29.71 in    
Wind  
Wind Speed 4 mph ()    
Max Wind Speed 8 mph    
Max Gust Speed 20 mph    
T = Trace of Precipitation, MM = Missing Value Source: Averaged Metar Reports

Daily Weather History Graph

Daily Weather History Graph

Search for Another Location

Airport:

Trip Planner

Search our weather history database for the weather conditions in past years. The results will help you decide how hot, cold, wet, or windy it might be!

Date:

Astronomy

Mar. 06, 2013 Rise Set
Actual Time 6:38 AM PST 5:58 PM PST
Civil Twilight 6:06 AM PST 6:30 PM PST
Nautical Twilight 5:30 AM PST 7:07 PM PST
Astronomical Twilight 4:52 AM PST 7:44 PM PST
Moon 3:15 AM PST (3/6) 12:24 PM PST (3/6)
Length of Visible Light 12h 23m
Length of Day
11h 20m
Waning Crescent, 29% of the Moon is Illuminated
Mar 6
Waning Crescent
Mar 11
New
Mar 19
First Quarter
Mar 27
Full
Apr 2
Last Quarter

Hourly Weather History & Observations

Time (PST) Temp. Windchill Dew Point Humidity Pressure Visibility Wind Dir Wind Speed Gust Speed Precip Events Conditions
12:00 AM 44.8 °F 43.3 °F 33.8 °F 65% 29.80 in - North 3.5 mph - N/A   Unknown
1:00 AM 44.4 °F - 32.9 °F 64% 29.78 in - SE 1.2 mph - N/A   Unknown
2:00 AM 44.2 °F 42.7 °F 31.6 °F 61% 29.75 in - ESE 3.5 mph - N/A   Unknown
3:00 AM 43.2 °F 39.0 °F 31.6 °F 64% 29.73 in - NE 6.9 mph - N/A   Unknown
4:00 AM 43 °F - 32 °F 54% 29.70 in - ENE 8.1 mph - -  
4:00 AM 43.2 °F 38.4 °F 32.0 °F 65% 29.70 in - ENE 8.1 mph - N/A   Unknown
5:00 AM 41.5 °F - 31.6 °F 68% 29.68 in - SW 2.3 mph - N/A   Unknown
6:00 AM 43.9 °F 41.3 °F 31.5 °F 62% 29.67 in - NE 4.6 mph - N/A   Unknown
7:00 AM 44.1 °F 40.8 °F 31.3 °F 61% 29.64 in - NNE 5.8 mph - N/A   Unknown
8:00 AM 44.8 °F 41.6 °F 31.5 °F 60% 29.63 in - NW 5.8 mph - N/A   Unknown
9:00 AM 47.3 °F - 30.6 °F 52% 29.63 in - NNW 5.8 mph - N/A   Unknown
10:00 AM 47 °F - 32 °F 45% 29.63 in - NNW 6.9 mph - -  
10:00 AM 47.3 °F - 31.6 °F 55% 29.63 in - NNW 6.9 mph 19.6 mph N/A   Unknown
11:00 AM 47.7 °F - 31.5 °F 53% 29.63 in - WNW 6.9 mph - N/A   Unknown
12:00 PM 48.2 °F - 32.9 °F 55% 29.64 in - SW 3.5 mph - N/A   Unknown
1:00 PM 48.7 °F - 33.6 °F 56% 29.64 in - West 3.5 mph - N/A   Unknown
2:00 PM 49.3 °F - 34.3 °F 56% 29.64 in - NW 4.6 mph - N/A   Unknown
3:00 PM 48.2 °F - 36.7 °F 64% 29.66 in - WSW 3.5 mph - N/A   Unknown
4:00 PM 46 °F - 39 °F 69% 29.68 in - Calm Calm - -  
4:00 PM 46.0 °F - 39.0 °F 76% 29.68 in - Calm Calm - N/A   Unknown
5:00 PM 44.1 °F - 39.9 °F 85% 29.70 in - Calm Calm - N/A   Unknown
6:00 PM 43.3 °F - 40.5 °F 90% 29.73 in - SSE 1.2 mph - N/A   Unknown
7:00 PM 42.8 °F - 40.8 °F 93% 29.76 in - Calm Calm - N/A   Unknown
8:00 PM 42.3 °F - 40.8 °F 95% 29.79 in - South 2.3 mph - 0.03 in   Unknown
9:00 PM 41.7 °F 39.8 °F 40.5 °F 95% 29.81 in - SSW 3.5 mph - 0.03 in   Unknown
10:00 PM 41 °F - 40 °F 92% 29.85 in - South 2.3 mph - -  
10:00 PM 41.2 °F - 39.6 °F 94% 29.85 in - South 2.3 mph - 0.01 in   Unknown
11:00 PM 40.6 °F - 39.0 °F 94% 29.87 in - Calm Calm - N/A   Unknown